Home   Weather   Bucaramanga   Past weeks

Flag for Colombia Past Weather in Bucaramanga, Colombia — Yesterday and Last 2 Weeks

Now
77 °F

Scattered clouds.


Feels Like: 79 °F
Forecast: 68 / 85 °F
Wind: 5 mph from North

Location: Bucaramanga / Palonegro

Current Time: Sep 25, 2016 at 12:33:09 PM

Latest Report: Sep 25, 2016 at 12:00 PM


Visibility: N/A

Pressure: 30.02 "Hg (26.90 "Hg at 956m altitude)

Humidity: 65%

Dew Point: 64 °F

Location of BucaramangaLocation

Past Weather in Bucaramanga — Graph

°F

Bucaramanga Temperature Yesterday

Maximum temperature yesterday: 82 °F (at 3:00 PM)
Minimum temperature yesterday: 66 °F (at 6:00 AM)
Average temperature yesterday: 72 °F

High & Low Weather Summary for the Past Weeks

 TemperatureHumidityPressure
High82 °F (Sep 17, 11:00 AM)100% (Sep 10, 6:00 PM)30.12 "Hg (Sep 10, 6:00 PM)
Low64 °F (Sep 13, 6:00 AM)45% (Sep 21, 11:00 AM)29.89 "Hg (Sep 20, 3:00 PM)
Average72 °F81%30.01 "Hg
* Reported Sep 10 11:00 AM — Sep 25 11:00 AM, Bucaramanga, Weather by CustomWeather, © 2016

Note: Actual official high and low records may vary slightly from our data, if they occured in-between our weather recording intervals... More about our weather records

Advertising

Bucaramanga Weather History for the Previous 24 Hours

Scroll right to see more
 ConditionsComfort  
Time TempWeatherWind HumidityBarometerVisibility
11:00 AM
Sun, Sep 25
75 °FOvercast.6 mph74%30.05 "HgN/A
10:00 AM72 °FPartly sunny.3 mph83%30.07 "HgN/A
9:00 AM70 °FFog.5 mph88%30.08 "Hg5 mi
8:00 AM68 °FFog.5 mph94%30.08 "Hg0 mi
7:00 AM66 °FFog.5 mph100%30.07 "Hg1 mi
6:00 AM66 °FPartly sunny.3 mph100%30.05 "Hg5 mi
11:00 PM
Sat, Sep 24
70 °FPassing clouds.No wind78%30.04 "HgN/A
10:00 PM72 °FPassing clouds.2 mph73%30.06 "HgN/A
9:00 PM72 °FPassing clouds.3 mph78%30.04 "HgN/A
8:00 PM68 °FPassing clouds.3 mph94%30.02 "HgN/A
7:00 PM72 °FPassing clouds.3 mph88%29.99 "HgN/A
6:00 PM72 °FPassing clouds.6 mph88%29.97 "HgN/A
5:00 PM75 °FScattered clouds.3 mph78%29.94 "HgN/A
4:00 PM77 °FPartly sunny.6 mph69%29.94 "HgN/A
3:00 PM82 °FScattered clouds.5 mph62%29.94 "HgN/A
2:00 PM79 °FScattered clouds.8 mph70%29.95 "HgN/A
1:00 PM81 °FScattered clouds.7 mph66%29.97 "HgN/A
12:00 PM81 °FScattered clouds.6 mph66%30.00 "HgN/A
Weather by CustomWeather, © 2016

See weather overviewHow to use our weather pages